TimeAST,TemperatureF,Dew PointF,Humidity,Sea Level PressureIn,VisibilityMPH,Wind Direction,Wind SpeedMPH,Gust SpeedMPH,PrecipitationIn,Events,Conditions,WindDirDegrees,DateUTC
12:00 AM,82.4,77.0,84,29.86,6.2,ESE,10.4,-,N/A,,Partly Cloudy,110,2013-09-26 04:00:00
1:00 AM,82.4,77.0,84,29.83,6.2,ESE,9.2,-,N/A,,Partly Cloudy,120,2013-09-26 05:00:00
2:00 AM,84,78,76,29.84,19,ESE,12.7,,,,Scattered Clouds,110,2013-09-26 06:00:00
2:00 AM,82.4,77.0,84,29.83,6.2,ESE,12.7,-,N/A,,Partly Cloudy,110,2013-09-26 06:00:00
3:00 AM,82.4,77.0,84,29.83,6.2,ESE,11.5,-,N/A,,Partly Cloudy,110,2013-09-26 07:00:00
4:00 AM,82.4,77.0,84,29.83,6.2,ESE,10.4,-,N/A,,Partly Cloudy,120,2013-09-26 08:00:00
5:00 AM,82,77,79,29.81,19,ESE,9.2,,,,,120,2013-09-26 09:00:00
5:00 AM,82.4,77.0,84,29.80,6.2,ESE,11.5,-,N/A,,Partly Cloudy,110,2013-09-26 09:00:00
5:46 AM,75.2,71.6,89,29.86,0.9,SE,24.2,36.8,N/A,Rain-Thunderstorm,Heavy Thunderstorms and Rain,140,2013-09-26 09:46:00
7:00 AM,73.4,71.6,94,29.86,6.2,SE,9.2,-,N/A,,Scattered Clouds,130,2013-09-26 11:00:00
8:00 AM,76,74,90,29.88,7,ESE,17.3,,,Rain,Light Rain,110,2013-09-26 12:00:00
8:00 AM,75.2,73.4,94,29.86,6.2,ESE,17.3,-,N/A,Rain,Light Rain,110,2013-09-26 12:00:00
9:00 AM,75.2,73.4,94,29.86,6.2,ESE,9.2,-,N/A,Rain,Light Rain,120,2013-09-26 13:00:00
10:00 AM,80.6,73.4,79,29.86,6.2,SSE,10.4,-,N/A,,Partly Cloudy,150,2013-09-26 14:00:00
11:00 AM,87,79,71,29.87,25,ESE,13.8,,,,Partly Cloudy,120,2013-09-26 15:00:00
11:00 AM,86.0,78.8,79,29.86,6.2,ESE,11.5,-,N/A,,Partly Cloudy,110,2013-09-26 15:00:00
12:00 PM,89.6,77.0,66,29.86,6.2,SE,16.1,-,N/A,,Scattered Clouds,130,2013-09-26 16:00:00
1:00 PM,89.6,77.0,66,29.83,6.2,SE,16.1,-,N/A,,Scattered Clouds,130,2013-09-26 17:00:00
2:00 PM,87.8,78.8,75,29.80,6.2,East,15.0,-,N/A,,Partly Cloudy,100,2013-09-26 18:00:00
3:00 PM,87.8,78.8,75,29.77,6.2,East,13.8,-,N/A,,Partly Cloudy,90,2013-09-26 19:00:00
4:00 PM,87.8,77.0,70,29.77,6.2,East,12.7,-,N/A,,Partly Cloudy,100,2013-09-26 20:00:00
5:00 PM,86.0,77.0,74,29.77,6.2,ESE,13.8,-,N/A,,Partly Cloudy,110,2013-09-26 21:00:00
6:00 PM,84.2,77.0,79,29.77,6.2,ESE,12.7,-,N/A,,Partly Cloudy,110,2013-09-26 22:00:00
7:00 PM,84.2,77.0,79,29.80,6.2,ESE,13.8,-,N/A,,Partly Cloudy,110,2013-09-26 23:00:00
8:00 PM,84.2,77.0,79,29.83,6.2,ESE,13.8,-,N/A,,Partly Cloudy,110,2013-09-27 00:00:00
9:00 PM,82.4,77.0,84,29.83,6.2,ESE,12.7,-,N/A,,Partly Cloudy,110,2013-09-27 01:00:00
10:00 PM,82.4,77.0,84,29.83,6.2,ESE,10.4,-,N/A,,Partly Cloudy,110,2013-09-27 02:00:00
11:00 PM,83,77,76,29.85,19,ESE,9.2,,,,Scattered Clouds,120,2013-09-27 03:00:00
11:00 PM,82.4,77.0,84,29.83,6.2,ESE,9.2,-,N/A,,Partly Cloudy,120,2013-09-27 03:00:00